Powrót do katalogu

QIANFAN-113

AktywnyŁącznośćPO
NORAD 68640·PAYLOAD·🇨🇳 China

Wystrzelony Apr 7, 2026 z Wenchang Space Launch Site

Loading…

Następne Przeloty (najbliższe 24 godziny)

TLE

ŚwieżeSource: Space-Track

Epoka: Sep 14, 2026, 14:44 UTC

1 68640U 26075E   26257.61430768  .00000025  00000-0  20241-4 0  9991
2 68640  88.9877 311.8762 0002345  96.2373 263.9045 13.51029233 21882

Śledź QIANFAN-113 w czasie rzeczywistym z AllMySat

Download on the App Store